Terminal Aerodrome Forecast
Issued by NWS St Louis, MO

Home | Current Version | Previous Version | Text Only | Print | Product List | Glossary On
Versions: 1 2 3 4 5 6 7 8 9 10 11 12 13 14 15 16 17 18 19 20 21 22 23 24 25 26 27 28
000
FTUS43 KLSX 262322
TAFCOU
TAF
KCOU 262322Z 2700/2724 12007KT P6SM VCTS BKN060CB
      TEMPO 2700/2702 3SM -TSRA BKN030CB
     FM270800 14007KT P6SM OVC080
     FM271800 15008KT P6SM VCSH SCT030 OVC080=

USA.gov is the U.S. government's official web portal to all federal, state and local government web resources and services.